TimeCST,TemperatureF,Dew PointF,Humidity,Sea Level PressureIn,VisibilityMPH,Wind Direction,Wind SpeedMPH,Gust SpeedMPH,PrecipitationIn,Events,Conditions,WindDirDegrees,DateUTC
12:09 AM,39.2,35.6,87,30.11,10.0,ESE,4.6,-,N/A,,Overcast,120,2012-11-15 06:09:00
12:29 AM,39.2,35.8,88,30.11,10.0,SE,4.6,-,N/A,,Overcast,130,2012-11-15 06:29:00
12:48 AM,39.2,35.1,85,30.11,10.0,Calm,Calm,-,N/A,,Overcast,0,2012-11-15 06:48:00
1:09 AM,39.2,35.4,86,30.10,10.0,Calm,Calm,-,N/A,,Overcast,0,2012-11-15 07:09:00
1:29 AM,39.2,35.4,86,30.10,10.0,Calm,Calm,-,N/A,,Overcast,0,2012-11-15 07:29:00
1:48 AM,39.2,35.8,88,30.10,10.0,Calm,Calm,-,N/A,,Overcast,0,2012-11-15 07:48:00
2:09 AM,39.2,36.1,89,30.10,10.0,ESE,4.6,-,N/A,,Overcast,120,2012-11-15 08:09:00
2:10 AM,39.0,36.0,89,30.10,10.0,ESE,4.6,-,N/A,,Overcast,120,2012-11-15 08:10:00
2:50 AM,35.6,33.8,93,30.10,10.0,Calm,Calm,-,N/A,,Mostly Cloudy,0,2012-11-15 08:50:00
3:10 AM,35.6,33.8,93,30.10,10.0,SSE,3.5,-,N/A,,Scattered Clouds,160,2012-11-15 09:10:00
3:30 AM,35.6,33.8,93,30.10,10.0,SSE,3.5,-,N/A,,Clear,150,2012-11-15 09:30:00
3:50 AM,35.6,33.8,93,30.10,10.0,Calm,Calm,-,N/A,,Clear,0,2012-11-15 09:50:00
4:10 AM,35.6,32.0,87,30.09,10.0,Calm,Calm,-,N/A,,Clear,0,2012-11-15 10:10:00
4:29 AM,34.0,32.0,92,30.10,10.0,SSE,3.5,-,N/A,,Clear,160,2012-11-15 10:29:00
4:49 AM,34.0,32.2,93,30.11,10.0,Calm,Calm,-,N/A,,Scattered Clouds,0,2012-11-15 10:49:00
5:09 AM,35.6,32.9,90,30.11,10.0,Calm,Calm,-,N/A,,Mostly Cloudy,0,2012-11-15 11:09:00
5:28 AM,34.0,32.2,93,30.11,10.0,Calm,Calm,-,N/A,,Mostly Cloudy,0,2012-11-15 11:28:00
5:49 AM,34.0,32.7,95,30.12,10.0,Calm,Calm,-,N/A,,Mostly Cloudy,0,2012-11-15 11:49:00
6:08 AM,32.9,32.0,96,30.13,10.0,Calm,Calm,-,N/A,,Scattered Clouds,0,2012-11-15 12:08:00
6:29 AM,31.8,31.3,98,30.13,10.0,Calm,Calm,-,N/A,,Scattered Clouds,0,2012-11-15 12:29:00
6:48 AM,31.8,31.1,97,30.14,7.0,Calm,Calm,-,N/A,,Clear,0,2012-11-15 12:48:00
7:09 AM,29.3,28.9,99,30.15,4.0,Calm,Calm,-,N/A,,Clear,0,2012-11-15 13:09:00
7:29 AM,29.3,29.1,99,30.16,5.0,Calm,Calm,-,N/A,,Clear,0,2012-11-15 13:29:00
7:48 AM,30.6,30.6,100,30.17,5.0,Calm,Calm,-,N/A,,Clear,0,2012-11-15 13:48:00
8:09 AM,33.3,33.1,99,30.18,7.0,West,3.5,-,N/A,,Clear,260,2012-11-15 14:09:00
8:26 AM,34.0,33.8,99,30.19,7.0,West,4.6,-,N/A,,Clear,280,2012-11-15 14:26:00
8:49 AM,36.5,34.7,93,30.20,10.0,WNW,9.2,-,N/A,,Clear,290,2012-11-15 14:49:00
8:57 AM,37.8,35.2,91,30.20,10.0,WNW,8.1,-,N/A,,Clear,300,2012-11-15 14:57:00
9:30 AM,41.0,35.6,81,30.21,10.0,NW,10.4,-,N/A,,Clear,310,2012-11-15 15:30:00
9:50 AM,42.8,35.6,76,30.23,10.0,NW,16.1,19.6,N/A,,Clear,310,2012-11-15 15:50:00
10:04 AM,42.1,34.9,76,30.24,10.0,NW,13.8,-,N/A,,Clear,310,2012-11-15 16:04:00
10:08 AM,42.6,35.2,75,30.24,10.0,NW,12.7,-,N/A,,Clear,310,2012-11-15 16:08:00
10:29 AM,44.1,35.6,72,30.25,10.0,WNW,11.5,-,N/A,,Clear,300,2012-11-15 16:29:00
10:49 AM,46.6,37.4,70,30.25,10.0,WNW,11.5,-,N/A,,Clear,290,2012-11-15 16:49:00
11:08 AM,46.4,37.2,70,30.25,10.0,NW,11.5,-,N/A,,Clear,320,2012-11-15 17:08:00
11:29 AM,46.6,36.1,67,30.26,10.0,WNW,10.4,-,N/A,,Clear,290,2012-11-15 17:29:00
11:49 AM,46.6,36.0,67,30.26,10.0,WNW,13.8,18.4,N/A,,Clear,300,2012-11-15 17:49:00
12:08 PM,49.1,37.9,65,30.27,10.0,NW,16.1,19.6,N/A,,Clear,320,2012-11-15 18:08:00
12:29 PM,49.1,37.8,65,30.27,10.0,NW,15.0,-,N/A,,Clear,310,2012-11-15 18:29:00
12:48 PM,49.1,37.9,65,30.27,10.0,NW,13.8,-,N/A,,Clear,320,2012-11-15 18:48:00
1:09 PM,49.1,37.6,64,30.28,10.0,NW,12.7,-,N/A,,Clear,320,2012-11-15 19:09:00
1:28 PM,49.1,36.9,63,30.28,10.0,WNW,12.7,-,N/A,,Clear,300,2012-11-15 19:28:00
1:49 PM,49.1,37.0,63,30.28,10.0,NW,10.4,-,N/A,,Clear,310,2012-11-15 19:49:00
2:08 PM,49.1,34.9,58,30.29,10.0,NW,11.5,-,N/A,,Clear,320,2012-11-15 20:08:00
2:29 PM,49.1,34.3,57,30.29,10.0,WNW,12.7,-,N/A,,Clear,300,2012-11-15 20:29:00
2:48 PM,48.7,34.3,58,30.30,10.0,NW,15.0,-,N/A,,Clear,320,2012-11-15 20:48:00
3:09 PM,46.6,32.0,57,30.31,10.0,NW,12.7,-,N/A,,Clear,310,2012-11-15 21:09:00
3:29 PM,45.7,31.3,57,30.32,10.0,NW,17.3,-,N/A,,Clear,310,2012-11-15 21:29:00
3:48 PM,43.5,29.7,58,30.33,10.0,NW,17.3,-,N/A,,Clear,320,2012-11-15 21:48:00
3:49 PM,43.3,29.5,58,30.33,10.0,NW,18.4,-,N/A,,Clear,320,2012-11-15 21:49:00
4:30 PM,41.0,30.2,65,30.35,10.0,NW,11.5,-,N/A,,Clear,320,2012-11-15 22:30:00
4:50 PM,39.2,30.2,70,30.36,10.0,NW,9.2,-,N/A,,Clear,310,2012-11-15 22:50:00
5:14 PM,36.5,28.9,74,30.37,10.0,NW,8.1,-,N/A,,Clear,310,2012-11-15 23:14:00
5:28 PM,35.6,28.6,76,30.37,10.0,NW,6.9,-,N/A,,Clear,310,2012-11-15 23:28:00
5:49 PM,34.0,28.0,79,30.38,10.0,NW,5.8,-,N/A,,Clear,310,2012-11-15 23:49:00
6:09 PM,34.0,28.8,81,30.39,10.0,NW,5.8,-,N/A,,Clear,310,2012-11-16 00:09:00
6:28 PM,34.0,28.2,79,30.40,10.0,NW,8.1,-,N/A,,Clear,310,2012-11-16 00:28:00
6:49 PM,33.3,27.5,79,30.40,10.0,NW,6.9,-,N/A,,Clear,310,2012-11-16 00:49:00
7:08 PM,31.3,26.1,81,30.40,10.0,NW,4.6,-,N/A,,Clear,310,2012-11-16 01:08:00
7:29 PM,29.7,24.6,81,30.40,10.0,NW,4.6,-,N/A,,Clear,310,2012-11-16 01:29:00
7:49 PM,30.0,24.6,80,30.41,10.0,Calm,Calm,-,N/A,,Clear,0,2012-11-16 01:49:00
8:08 PM,29.3,24.4,82,30.42,10.0,WNW,5.8,-,N/A,,Clear,300,2012-11-16 02:08:00
8:28 PM,29.3,24.4,82,30.43,10.0,WNW,4.6,-,N/A,,Clear,290,2012-11-16 02:28:00
8:49 PM,29.3,24.6,83,30.44,10.0,WNW,4.6,-,N/A,,Clear,300,2012-11-16 02:49:00
9:09 PM,29.3,24.8,83,30.44,10.0,NW,4.6,-,N/A,,Clear,310,2012-11-16 03:09:00
9:28 PM,26.6,23.5,88,30.44,10.0,Calm,Calm,-,N/A,,Clear,0,2012-11-16 03:28:00
9:49 PM,26.6,23.9,90,30.45,10.0,Calm,Calm,-,N/A,,Clear,0,2012-11-16 03:49:00
10:09 PM,25.5,22.5,88,30.45,10.0,NW,3.5,-,N/A,,Clear,320,2012-11-16 04:09:00
10:28 PM,23.4,20.7,89,30.45,10.0,NW,4.6,-,N/A,,Clear,320,2012-11-16 04:28:00
10:48 PM,24.3,21.4,89,30.45,10.0,Calm,Calm,-,N/A,,Clear,0,2012-11-16 04:48:00
11:08 PM,23.2,20.1,88,30.45,10.0,WNW,4.6,-,N/A,,Clear,300,2012-11-16 05:08:00
11:29 PM,24.3,21.0,87,30.46,10.0,WNW,4.6,-,N/A,,Clear,300,2012-11-16 05:29:00
11:49 PM,22.1,19.0,88,30.47,10.0,WNW,3.5,-,N/A,,Clear,300,2012-11-16 05:49:00